This demonstration page uses our WeatherBlox Daily Observations layout. Learn more.

41.55636, -103.73856

Hourly Observations for April 4, 2015

Temp ( °F °C ) Dew Point ( °F °C ) Humidity (%) Winds ( mph kmh ) Pressure ( in mb ) Visibility ( mi km ) Precip ( " mm )
12:53 am 00:53 Clear 25 -3.9 12 -11.1 58 58 ENE 7 11 30.27 1025 10 16.0934 0 0
1:53 am 01:53 Clear 25 -3.9 12 -11.1 58 58 NE 5 7 30.24 1024 10 16.0934 0 0
2:53 am 02:53 Clear 24 -4.4 11 -11.7 57 57 E 7 11 30.24 1024 10 16.0934 0 0
3:53 am 03:53 Clear 25 -3.9 12 -11.1 58 58 ENE 7 11 30.21 1023 10 16.0934 0 0
4:53 am 04:53 Clear 26 -3.3 13 -10.6 57 57 ENE 8 13 30.18 1022 10 16.0934 0 0
5:53 am 05:53 Clear 25 -3.9 13 -10.6 60 60 E 8 13 30.18 1022 10 16.0934 0 0
6:53 am 06:53 Sunny 27 -2.8 15 -9.4 61 61 E 9 15 30.16 1022 10 16.0934 0 0
7:53 am 07:53 Sunny 35 1.7 18 -7.8 50 50 ESE 7 11 30.16 1021 10 16.0934 0 0
8:53 am 08:53 Sunny 42 5.6 20 -6.7 41 41 ESE 5 7 30.12 1020 10 16.0934 0 0
9:53 am 09:53 Sunny 47 8.3 20 -6.7 34 34 SSE 5 7 30.11 1020 10 16.0934 0 0
10:53 am 10:53 Sunny 53 11.7 18 -7.8 25 25 Calm 30.09 1019 10 16.0934 0 0
11:53 am 11:53 Sunny 59 15 15 -9.4 18 18 NNW 7 11 30.04 1017 10 16.0934 0 0
12:53 pm 12:53 Sunny 62 16.7 13 -10.6 14 14 WSW 8 13 30.02 1017 10 16.0934 0 0
1:53 pm 13:53 Sunny 65 18.3 8 -13.3 10 10 W 17 28 29.97 1015 10 16.0934 0 0
2:53 pm 14:53 Sunny 66 18.9 7 -13.9 10 10 WSW 10 17 29.93 1014 10 16.0934 0 0
3:53 pm 15:53 Sunny 67 19.4 6 -14.4 9 9 W 9 15 29.9 1012 10 16.0934 0 0
4:53 pm 16:53 Sunny 65 18.3 4 -15.6 9 9 VRB 3 6 29.87 1011 10 16.0934 0 0
5:53 pm 17:53 Sunny 63 17.2 8 -13.3 11 11 WSW 8 13 29.86 1011 10 16.0934 0 0
6:53 pm 18:53 Sunny 60 15.6 10 -12.2 14 14 SSE 5 7 29.85 1011 10 16.0934 0 0
7:53 pm 19:53 Clear 51 10.6 11 -11.7 20 20 E 7 11 29.85 1011 10 16.0934 0 0
8:53 pm 20:53 Clear 52 11.1 14 -10 22 22 SE 3 6 29.83 1010 10 16.0934 0 0
9:53 pm 21:53 Clear 41 5 12 -11.1 30 30 E 7 11 29.84 1011 10 16.0934 0 0
10:53 pm 22:53 Clear 37 2.8 12 -11.1 36 36 E 7 11 29.83 1010 10 16.0934 0 0
11:53 pm 23:53 Clear 37 2.8 13 -10.6 37 37 E 9 15 29.81 1010 10 16.0934 0 0

Powered by AerisWeather